Location: Avenquinha de Santo Ant�nio
(26.1616°S, 49.3263°W)
Time: 21:07:49
(UTC+00:00)

Daily predictions for brighter satellites

Satellite Brightness Start Highest point End
(mag) Time Altitude Azimuth Time Altitude Azimuth Time Altitude Azimuth
FALCON 9 R/B 4.3 19:54:46 10° WNW 20:01:46 87° NNE 21:02:06 10° E
Cosmos 1766 3.5 20:56:04 10° NNE 20:59:49 49° E 21:03:36 10° SSE
Cosmos 1833 4.4 20:55:31 10° NNW 21:01:15 81° WSW 21:07:04 10° SSE
PAYLOAD B 4.3 20:56:32 10° SSE 21:02:11 88° ENE 21:07:47 10° NNW
H-2A R/B 4.3 21:01:04 10° S 21:04:41 32° WSW 21:08:23 10° NW
Cosmos 2322 Rocket 2.4 21:00:03 10° S 21:05:36 52° ESE 21:11:03 10° NE
Cosmos 1536 Rocket 3.9 21:02:02 10° S 21:06:27 72° W 21:10:51 10° N
CENTAUR R/B 3.8 20:59:45 10° NW 21:08:04 56° WSW 21:15:28 10° SSE
Meteor 1-22 Rocket 4.4 21:04:15 10° NNE 21:09:30 50° E 21:15:01 10° SSE
USA 116 4.1 21:07:23 10° NNE 21:12:19 71° ESE 21:16:47 10° S
SL-24 R/B - RUBIN 2 4.1 21:09:23 10° S 21:13:34 39° ESE 21:18:08 10° NE
Cosmos 2292 Rocket 4.0 21:11:52 10° SSE 21:14:17 20° E 21:16:33 10° NE
Cosmos 540 Rocket 4.3 21:10:27 10° SSW 21:15:30 55° WNW 21:20:29 10° N
NOAA 12 4.5 21:12:37 10° SSE 21:17:40 44° E 21:22:42 10° N
CZ-3C R/B 4.3 21:15:03 10° NNW 21:17:56 16° N 21:24:02 10° NE
Cosmos 1354 Rocket 4.0 21:12:58 10° NNW 21:18:15 84° ENE 21:23:35 10° SSE
Envisat 3.0 21:16:29 10° SSE 21:21:36 70° ENE 21:26:39 10° N
ARGOS Delta rocket 4.3 21:18:41 10° SSE 21:22:45 35° E 21:26:47 10° NNE
Cosmos 1655 Rocket 4.0 21:16:59 10° S 21:23:16 69° E 21:29:32 10° NNE
Meteor 2-5 Rocket 4.0 21:19:03 10° S 21:24:30 47° E 21:29:58 10° NNE
Cosmos 2297 Rocket 4.0 21:23:26 10° ENE 21:24:54 11° E 21:25:31 11° E
Cosmos 1470 3.7 21:24:04 10° NNE 21:27:30 28° E 21:30:56 10° SSE
GPS 2-14 Rocket1 4.0 21:25:37 10° WNW 21:29:02 32° N 21:32:29 10° ENE
Sakura Rocket 2.8 21:26:14 10° W 21:30:15 60° S 21:32:45 19° ESE
Cosmos 1626 3.2 21:28:08 10° SSE 21:31:14 24° E 21:34:17 10° NE
Cosmos 1674 2.7 21:29:44 10° S 21:33:37 87° W 21:37:27 10° N
TELKOM 3 4.1 21:31:49 10° SSW 21:34:30 37° SE 21:37:00 15° ENE
Cosmos 1939 Rocket 4.4 21:35:34 18° E 21:36:09 18° E 21:39:03 10° NE
KM-V1 4.3 21:35:47 10° WSW 21:39:25 37° S 21:40:19 28° SE
Cosmos 2219 Rocket 3.8 21:36:26 10° SSE 21:38:06 14° SE 21:38:06 14° SE
Helios 1A Rocket 3.2 21:35:57 10° SSE 21:40:02 49° E 21:44:03 10° N
Cosmos 1544 Rocket 3.9 21:36:22 10° NNE 21:40:37 45° E 21:44:54 10° SSE
Cosmos 1818 4.4 21:35:25 10° SW 21:40:41 55° WNW 21:45:55 10° N
Longmarch 3A Rocket 3.0 21:29:44 10° W 21:42:05 62° NNW 21:44:47 14° ENE
Cosmos 2360 Rocket 2.2 21:37:11 10° S 21:42:44 56° ESE 21:48:13 10° NNE
KORONAS-FOTON 4.3 21:41:03 10° SSW 21:44:56 63° W 21:48:48 10° N
Meteor 1-24 Rocket 3.7 21:40:07 10° S 21:45:29 55° E 21:50:59 10° NNE
ATLAS 3B R/B 3.2 21:39:00 10° NW 21:46:17 70° WSW 21:53:45 10° SSE
Cosmos 1437 3.7 21:48:08 10° SSW 21:51:05 46° W 21:53:59 10° N
Cosmos 2098 Rocket 4.3 21:44:12 10° S 21:51:45 72° E 21:58:41 10° NNE
Feng Yun 1-1 Rocket 4.3 21:47:46 10° SSE 21:53:40 73° ENE 21:59:34 10° N
Cosmos 2333 Rocket 3.3 21:49:28 10° SSE 21:53:03 23° SE 21:53:03 23° SE
Cosmos 1340 Rocket 3.6 21:50:46 10° NNE 21:53:59 30° E 21:53:59 30° E
Cosmos 1758 3.2 21:57:48 10° N 22:01:48 72° E 22:04:09 24° SSE
SL-16 R/B 4.0 21:57:52 10° SW 22:02:53 33° WNW 22:07:53 10° NNW
SL-4 R/B 3.3 22:03:24 10° N 22:07:40 31° NE 22:07:59 31° ENE
Cosmos 2227 Rocket 3.2 22:03:17 10° NNE 22:07:12 26° ENE 22:07:12 26° ENE
Meteor 2-10 4.3 22:07:34 10° N 22:13:08 56° E 22:15:54 30° SSE
Cosmos 1809 Rocket 4.3 22:08:46 10° S 22:15:00 72° E 22:21:10 10° NNE
Cosmos 2219 3.3 22:12:01 10° N 22:17:27 51° ENE 22:18:27 45° ESE
Gbstr 26 Del rocket 3.4 22:12:34 10° SW 22:18:36 89° SE 22:21:03 31° NE
CZ-4 R/B 4.3 22:23:39 68° SSE 22:24:10 89° E 22:28:19 10° NNW
Meteor 2-8 Rocket 4.5 22:18:45 10° NNE 22:24:37 51° E 22:25:22 48° ESE
GPS 2-04 Rocket1 3.1 22:22:22 10° WSW 22:25:33 49° NW 22:25:33 49° NW
Cosmos 1417 Rocket 4.3 22:22:23 10° N 22:28:29 66° E 22:30:44 40° SSE
ATLAS 5 CENTAUR R/B 1.9 22:28:27 10° WNW 22:30:50 36° N 22:30:50 36° N
Centaur D AC-29 3.1 22:34:18 10° WNW 22:37:13 22° NNW 22:38:46 18° NNE
CZ-2C R/B 2.4 22:33:09 10° NNE 22:38:20 83° ESE 22:43:35 10° S
ASTRO E2 4.1 22:34:54 10° W 22:38:30 32° NNW 22:38:40 32° NNW
YAOGAN 1 3.8 22:43:16 33° N 22:43:16 33° N 22:45:41 10° N
Lacrosse 4 Rocket 2.3 22:40:32 10° NW 22:43:41 46° WNW 22:43:41 46° WNW
DMSP B5D2-2 4.1 22:42:51 10° N 22:48:03 76° WNW 22:53:20 10° SSW
Cosmos 1726 4.3 22:44:44 10° NNW 22:46:09 22° NNW 22:46:09 22° NNW
Cosmos 1953 3.9 22:48:29 10° NNW 22:51:02 33° NW 22:51:02 33° NW
Okean-O 3.8 22:52:00 37° SW 22:52:43 39° WSW 22:56:51 10° NW
CZ-4 R/B 3.1 22:58:32 32° WNW 22:58:32 32° WNW 23:01:09 10° NNW
Cosmos 2297 Rocket 2.7 23:02:40 10° NNW 23:07:24 56° WNW 23:07:24 56° WNW
S3M 4.3 23:07:50 10° NNW 23:14:06 62° W 23:14:12 62° W
Cosmos 2219 Rocket 4.2 23:18:25 10° SSW 23:19:58 19° SW 23:19:58 19° SW
Cosmos 2333 Rocket 4.3 23:33:09 10° SW 23:35:15 21° SW 23:35:15 21° SW
Cosmos 2227 Rocket 4.4 23:46:53 10° NW 23:49:05 20° WNW 23:49:05 20° WNW
